Simultaneous Nadir Overpasses (SNOs) Predictions

Prediction of SNOs between GOES-16 and NOAA-20 Satellite Orbit:

Table of predicted SNOs for the next 14.0 days since TLE Epoch: 4/20/2024
Index Date Time (GOES-16) GOES-16 Lat,Lon NOAA-20 Lat,Lon Distance(km) Time Diff (sec)
1 04/20/2024 18:09:27 0.01, -75.20 0.86, -71.50 422.38 80
2 04/22/2024 06:34:02 -0.01, -75.21 0.32, -76.80 181.19 80
3 04/23/2024 06:12:42 -0.01, -75.21 -0.64, -72.28 333.11 80
4 04/24/2024 18:37:26 0.01, -75.22 -0.53, -77.63 274.78 80
5 04/25/2024 18:18:47 0.01, -75.22 0.50, -73.12 239.77 80
6 04/27/2024 06:40:41 -0.01, -75.24 0.73, -78.42 363.22 80
7 04/28/2024 06:19:21 -0.01, -75.24 -0.31, -73.91 151.33 80
8 04/29/2024 18:41:25 0.00, -75.25 -0.90, -79.25 456.30 80
9 04/30/2024 18:25:25 0.00, -75.25 0.14, -74.74 58.70 80
10 05/03/2024 06:28:39 -0.00, -75.28 0.08, -75.53 28.26 80
